Regional Weather Roundup
Issued by NWS

Home | Current Version | Previous Version | Text Only | Print | Product List | Glossary On
Versions: 1 2 3 4 5 6 7 8 9 10 11 12 13 14 15 16 17 18 19 20 21 22 23 24 25 26 27 28 29 30 31 32 33 34 35 36 37 38 39 40 41 42 43 44 45 46 47 48 49 50
324
ASUS44 KJAN 062010
RWRMS

MISSISSIPPI HOURLY WEATHER ROUNDUP
NATIONAL WEATHER SERVICE JACKSON MS
200 PM CST SAT FEB 06 2016

NOTE: "FAIR: INDICATES FEW OR NO CLOUDS BELOW 12,000 FEET WITH NO
SIGNIFICANT WEATHER AND/OR OBSTRUCTIONS TO VISIBILITY.

MSZ001>002-007>008-010>013-018>021-025>028-034>036-062100-
NORTHWEST MISSISSIPPI

CITY           SKY/WX    TMP DP  RH WIND       PRES   REMARKS
CLEVELAND      FAIR      53  27  36 MISG      30.32S
GREENWOOD      SUNNY     55  16  21 VRB3      30.30F
GREENVILLE     SUNNY     56  26  31 N6        30.31F
OLIVE BRANCH   PTSUNNY   48  23  37 CALM      30.31F
OXFORD         FAIR      52  18  25 CALM      30.32F
TUNICA         CLEAR     52  21  30 CALM      30.34F
$$

MSZ003>006-009-014>017-022>024-029>033-037>039-062100-
NORTHEAST MISSISSIPPI

CITY           SKY/WX    TMP DP  RH WIND       PRES   REMARKS
COLUMBUS AFB   SUNNY     54  21  28 NE8       30.29F
CORINTH        FAIR      52  19  28 S3        30.31F
GOLDN TRIANGLE SUNNY     54  21  28 N9        30.29F
STARKVILLE     FAIR      54  23  30 E8        30.30F
TUPELO         CLOUDY    52  19  27 NW6       30.32F
$$

MSZ040-058-062100-
CENTRAL MISSISSIPPI

CITY           SKY/WX    TMP DP  RH WIND       PRES   REMARKS
JACKSON INTL   MOSUNNY   56  20  24 N9        30.28F
JACKSON HAWKNS SUNNY     55  19  24 NE9       30.28F
MERIDIAN KEY   SUNNY     55  16  21 MISG      30.27F
MERIDIAN NAS   SUNNY     54  14  20 VRB7      30.28F
VICKSBURG      SUNNY     57  23  26 CALM      30.29F
$$

MSZ059>079-062100-
SOUTH MISSISSIPPI

CITY           SKY/WX    TMP DP  RH WIND       PRES   REMARKS
BROOKHAVEN     FAIR      55  25  30 CALM      30.27F
HATTIESBURG    SUNNY     56  20  24 VRB3      30.26F
MCCOMB         SUNNY     56  20  24 VRB5      30.25F
NATCHEZ        SUNNY     55  21  26 N7        30.26F
PINE BELT      SUNNY     55 N/A N/A N9        30.27F
$$

MSZ080>082-062100-
COASTAL MISSISSIPPI

CITY           SKY/WX    TMP DP  RH WIND       PRES   REMARKS
BAY ST LOUIS   SUNNY     57   7  13 CALM      30.25F
BILOXI         MOSUNNY   56  27  33 S9        30.25F
PASCAGOULA     SUNNY     59  22  24 VRB5      30.24F
GULFPORT       SUNNY     55  27  34 SW7       30.25F
$$




USA.gov is the U.S. government's official web portal to all federal, state and local government web resources and services.